Regional Weather Roundup
Issued by NWS

Home | Current Version | Previous Version | Text Only | Print | Product List | Glossary On
Versions: 1 2 3 4 5 6 7 8 9 10 11 12 13 14 15 16 17 18 19 20 21 22 23 24 25 26 27 28 29 30 31 32 33 34 35 36 37 38 39 40 41 42 43 44 45 46 47 48 49 50
000
ASUS43 KBIS 261820
RWRND

NORTH DAKOTA REGIONAL WEATHER ROUNDUP
NATIONAL WEATHER SERVICE BISMARCK ND
1200 PM CST FRI DEC 26 2014

NOTE: "FAIR" INDICATES FEW OR NO CLOUDS BELOW 12,000 FEET WITH NO
SIGNIFICANT WEATHER AND/OR OBSTRUCTIONS TO VISIBILITY.


NDZ001>003-009>011-017-261900-
NORTHWEST NORTH DAKOTA

CITY           SKY/WX    TMP DP  RH WIND       PRES   REMARKS
WILLISTON      CLOUDY    16  11  80 CALM      30.17F
6HR MIN TEMP:  12; 6HR MAX TEMP:  15; 6HR PCP: TRACE;

MINOT          CLOUDY    11   4  73 W12       30.19F WCI  -3
MINOT AFB      FLURRIES   9   6  90 N3        30.19F
$$

NDZ018>021-031>035-040>046-261900-
SOUTHWEST NORTH DAKOTA

CITY           SKY/WX    TMP DP  RH WIND       PRES   REMARKS
BISMARCK       CLOUDY    16  11  80 S3        30.20F
6HR MIN TEMP:  13; 6HR MAX TEMP:  16; 6HR PCP: TRACE;

DICKINSON      FAIR      23  12  62 N8        30.10F WCI  14
GARRISON         N/A     11   6  81 N9        30.18F WCI  -2
6HR MIN TEMP:   9; 6HR MAX TEMP:  13;

HETTINGER ARPT CLOUDY    21  12  68 NW9       30.12F WCI  11
$$

NDZ004>008-012>016-024-026-027-054-261900-
NORTHEAST NORTH DAKOTA

CITY           SKY/WX    TMP DP  RH WIND       PRES   REMARKS
GRAND FORKS    FLURRIES  20  15  81 NW12      30.19F WCI   8
GRND FRKS AFB  CLOUDY    21  15  76 N14       30.19F WCI   8
DEVILS LAKE    FAIR       7  -2  66 NW13      30.18F WCI  -9
$$

NDZ022-023-025-028>030-036>039-047>053-261900-
SOUTHEAST NORTH DAKOTA

CITY           SKY/WX    TMP DP  RH WIND       PRES   REMARKS
FARGO          FLURRIES  25  20  81 N14       30.16F WCI  13
6HR MIN TEMP:  22; 6HR MAX TEMP:  26; 6HR PCP: TRACE;

JAMESTOWN      FLURRIES  11   5  77 NW14      30.18S WCI  -5
$$



USA.gov is the U.S. government's official web portal to all federal, state and local government web resources and services.